Weather History for Moline, IL

Change the Weather History Date:

Monday, May 27, 2013

  Actual Average Record
Temperature  
Mean Temperature 65 °F 65 °F  
Max Temperature 72 °F 76 °F 94 °F (2012)
Min Temperature 57 °F 54 °F 34 °F (1992)
Degree Days  
Heating Degree Days 0 3  
Month to date heating degree days 150 151  
Since 1 July heating degree days 6308 6174  
Cooling Degree Days 0 3  
Month to date cooling degree days 55 49  
Year to date cooling degree days 64 63  
Growing Degree Days 14 (Base 50)    
Moisture  
Dew Point 61 °F    
Average Humidity 89    
Maximum Humidity 100    
Minimum Humidity 78    
Precipitation  
Precipitation 0.33 in 0.14 in 1.78 in (1973)
Month to date precipitation 6.51 3.74  
Year to date precipitation 21.69 13.28  
Snow  
Snow 0.00 in 0.00 in - ()
Month to date snowfall 0.0 0.0  
Since 1 July snowfall 34.5 31.6  
Snow Depth 0.00 in    
Sea Level Pressure  
Sea Level Pressure 29.90 in    
Wind  
Wind Speed 9 mph (East)    
Max Wind Speed 20 mph    
Max Gust Speed 24 mph    
Visibility 6 miles    
Events Rain , Thunderstorm    
T = Trace of Precipitation, MM = Missing Value Source: NWS Daily Summary

Daily Weather History Graph

Daily Weather History Graph

Search for Another Location

Airport:

Trip Planner

Search our weather history database for the weather conditions in past years. The results will help you decide how hot, cold, wet, or windy it might be!

Date:

Astronomy

May. 27, 2013 Rise Set
Actual Time 5:33 AM CDT 8:25 PM CDT
Civil Twilight 5:00 AM CDT 8:58 PM CDT
Nautical Twilight 4:19 AM CDT 9:40 PM CDT
Astronomical Twilight 3:31 AM CDT 10:28 PM CDT
Moon 11:04 PM CDT (5/27) 8:11 AM CDT (5/27)
Length of Visible Light 15h 58m
Length of Day
14h 52m
Waning Gibbous, 91% of the Moon is Illuminated
May 27
Waning Gibbous
May 31
Last Quarter
Jun 8
New
Jun 16
First Quarter
Jun 23
Full

Hourly Weather History & Observations

Time (CDT) Temp. Dew Point Humidity Pressure Visibility Wind Dir Wind Speed Gust Speed Precip Events Conditions
12:52 AM 57.9 °F 57.0 °F 97% 30.02 in 7.0 mi East 11.5 mph - N/A   Overcast
1:20 AM 57.2 °F 57.2 °F 100% 30.01 in 5.0 mi East 10.4 mph - N/A   Overcast
1:52 AM 57.9 °F 55.9 °F 93% 30.02 in 4.0 mi NE 6.9 mph - N/A   Overcast
2:08 AM 57.2 °F 55.4 °F 94% 30.02 in 4.0 mi ENE 6.9 mph - N/A Thunderstorm Overcast
2:33 AM 57.2 °F 55.4 °F 94% 30.00 in 3.0 mi ENE 12.7 mph - 0.00 in Rain Heavy Rain
2:50 AM 57.2 °F 55.4 °F 94% 30.00 in 4.0 mi ENE 11.5 mph - 0.04 in Rain Light Rain
2:52 AM 57.9 °F 55.9 °F 93% 30.01 in 4.0 mi East 11.5 mph - 0.04 in Rain Rain
3:02 AM 57.2 °F 55.4 °F 94% 30.00 in 4.0 mi East 8.1 mph - 0.03 in Rain Rain
3:52 AM 59.0 °F 57.0 °F 93% 29.98 in 8.0 mi SE 9.2 mph - 0.08 in   Overcast
4:49 AM 59.0 °F 57.2 °F 94% 29.93 in 2.5 mi Variable 4.6 mph 17.3 mph 0.04 in Rain Heavy Rain
4:52 AM 57.9 °F 57.0 °F 97% 29.94 in 2.0 mi NNE 8.1 mph - 0.06 in Rain Heavy Rain
5:01 AM 59.0 °F 57.2 °F 94% 29.95 in 3.0 mi East 9.2 mph - 0.05 in Rain Rain
5:52 AM 57.9 °F 57.0 °F 97% 29.95 in 4.0 mi East 11.5 mph - 0.05 in   Overcast
6:52 AM 59.0 °F 57.0 °F 93% 29.96 in 4.0 mi East 6.9 mph - N/A   Overcast
7:52 AM 60.1 °F 57.9 °F 93% 29.99 in 3.0 mi ESE 4.6 mph - N/A   Overcast
8:14 AM 60.8 °F 57.2 °F 88% 29.98 in 2.5 mi East 10.4 mph - N/A   Overcast
8:52 AM 60.1 °F 57.9 °F 93% 29.97 in 2.5 mi East 9.2 mph - N/A   Overcast
9:52 AM 62.1 °F 59.0 °F 90% 29.92 in 2.0 mi ESE 6.9 mph - N/A   Overcast
10:30 AM 62.6 °F 60.8 °F 94% 29.89 in 2.0 mi ESE 11.5 mph - N/A   Overcast
10:52 AM 63.0 °F 60.1 °F 90% 29.91 in 3.0 mi SE 6.9 mph - N/A   Overcast
11:52 AM 64.9 °F 62.1 °F 90% 29.91 in 6.0 mi ESE 8.1 mph - N/A   Overcast
12:35 PM 66.2 °F 62.6 °F 88% 29.91 in 9.0 mi SSE 5.8 mph - N/A   Overcast
12:52 PM 66.9 °F 63.0 °F 87% 29.91 in 8.0 mi SE 5.8 mph - N/A   Overcast
1:52 PM 68.0 °F 64.0 °F 87% 29.86 in 8.0 mi ESE 9.2 mph - 0.00 in Rain Light Rain
2:37 PM 69.8 °F 64.4 °F 83% 29.86 in 8.0 mi ESE 12.7 mph - 0.01 in   Overcast
2:52 PM 68.0 °F 64.0 °F 87% 29.84 in 8.0 mi ESE 13.8 mph - 0.01 in   Overcast
3:52 PM 69.1 °F 64.0 °F 84% 29.80 in 7.0 mi East 15.0 mph - N/A   Overcast
4:09 PM 69.8 °F 64.4 °F 83% 29.80 in 7.0 mi East 16.1 mph - N/A   Overcast
4:44 PM 69.8 °F 64.4 °F 83% 29.80 in 9.0 mi ESE 18.4 mph - N/A   Overcast
4:52 PM 70.0 °F 63.0 °F 78% 29.80 in 9.0 mi ESE 15.0 mph - N/A   Overcast
5:52 PM 72.0 °F 64.0 °F 76% 29.78 in 9.0 mi East 15.0 mph - N/A   Mostly Cloudy
6:52 PM 70.0 °F 64.0 °F 81% 29.79 in 7.0 mi SE 11.5 mph - N/A   Mostly Cloudy
6:59 PM 69.8 °F 64.4 °F 83% 29.79 in 7.0 mi SE 12.7 mph - N/A   Overcast
7:23 PM 69.8 °F 64.4 °F 83% 29.80 in 6.0 mi ESE 10.4 mph - N/A   Haze
7:52 PM 69.1 °F 64.0 °F 84% 29.80 in 6.0 mi ESE 9.2 mph - N/A   Haze
8:45 PM 68.0 °F 64.4 °F 88% 29.80 in 8.0 mi East 6.9 mph - N/A   Overcast
8:52 PM 68.0 °F 64.0 °F 87% 29.80 in 7.0 mi East 5.8 mph - N/A   Overcast
9:52 PM 66.9 °F 64.9 °F 93% 29.81 in 6.0 mi ESE 3.5 mph - 0.08 in   Overcast
9:59 PM 66.2 °F 64.4 °F 94% 29.81 in 6.0 mi East 3.5 mph - N/A   Overcast
10:52 PM 66.0 °F 64.9 °F 96% 29.81 in 6.0 mi East 5.8 mph - N/A   Overcast
11:52 PM 66.0 °F 64.0 °F 93% 29.79 in 7.0 mi East 4.6 mph - 0.01 in   Overcast